Regional Weather Roundup
Issued by NWS Midland/Odessa, TX

Skip options and go directly to product.
Home | Oldest Version | Previous Version | Current Version | All | Text Only | Save Text | Print | Product List | Glossary Off

Skip product version selection by date and time.   

753
ASUS44 KMAF 040810
RWRMAF
MIDLAND AREA WEATHER ROUNDUP
NATIONAL WEATHER SERVICE MIDLAND TX
300 AM CDT SAT JUL 04 2015

...IN SOUTHWEST TEXAS AND SOUTHEAST NEW MEXICO...

CITY           SKY/WX    TMP DP  RH WIND       PRES   REMARKS
ALPINE         CLOUDY    70  62  74 CALM      30.13F
ANDREWS        FAIR      71  63  75 S6        30.05F
ARTESIA        PTCLDY    72  66  83 CALM      30.07R
BIG SPRING     MOCLDY    75  63  64 SE7       30.05S
CARLSBAD       MOCLDY    73  65  75 CALM      30.03S
DRYDEN           N/A     77  69  76 E8        29.95F
FORT STOCKTON  MOCLDY    74  64  71 E9        30.02R
GUAD PASS      MOCLDY    68  60  75 NE24      30.15F
HOBBS          PTCLDY    68  61  77 CALM      30.09S
MARFA          CLOUDY   N/A N/A N/A NW3       30.12F
MIDLAND AIRPK  PTCLDY    75  64  67 S5        30.04S
MIDLAND INTL   PTCLDY    74  64  71 S6        30.04S
ODESSA         PTCLDY    74  63  68 S6        30.05S
PECOS          CLOUDY    78  63  60 E9        30.00S
PRESIDIO       FAIR      80  63  56 NE13      29.96S
SEMINOLE       PTCLDY    68  59  73 S5        30.07F
SNYDER         MOCLDY    71  64  76 S5        30.03S
WINK           PTCLDY    75  62  64 SE7       30.01S
$$
...OTHER STATIONS IN TEXAS...

CITY           SKY/WX    TMP DP  RH WIND       PRES   REMARKS
ABILENE        PTCLDY    77  65  66 S12       30.00R
AMARILLO       MOCLDY    64  58  80 SW9       30.07F
AUSTIN         CLOUDY    75  75 100 S6        29.97F
BROWNSVILLE    CLEAR     79  74  84 S10       29.95F
CORPUS CHRISTI PTCLDY    79  76  90 SE7       29.95S
DALLAS FTW     PTCLDY    82  71  69 SW14      29.93S
DEL RIO        CLEAR     78  72  81 E12       29.93S
EL PASO        CLOUDY    80  59  48 CALM      30.02S
HOUSTON INT    PTCLDY    79  76  90 S5        29.98F
LUBBOCK        CLOUDY    74  61  63 W3        30.05F
SAN ANGELO     MOCLDY    76  67  73 S6        30.00S
SAN ANTONIO    MOCLDY    77  73  87 S7        29.98F
WACO           CLEAR     77  72  84 S9        29.96S
WICHITA FALLS  NOT AVBL
$$
...OTHER LOCATIONS IN NEW MEXICO...

CITY           SKY/WX    TMP DP  RH WIND       PRES   REMARKS
ALAMAGORDO     PTCLDY    70  63  78 NE6       30.07S
ALBUQUERQUE    CLOUDY    75  53  46 CALM      30.15R
CANNON AFB     CLOUDY    62  59  90 E12G20    30.16F
CLOVIS         CLOUDY    63  57  82 E14G21      N/A
HOLLOMAN AFB   PTCLDY    69  63  82 NE6       30.04S
ROSWELL        PTCLDY    67  61  81 SW5       30.06S
RUIDOSO        PTCLDY    59  55  88 S5        30.29S
SANTA FE       MOCLDY    67  53  61 SE10      30.22S
TRUTH OR CONSE CLOUDY    72  62  71 S7        30.10F
TUCUMCARI      CLEAR     67  55  65 S12       30.10F
$$

USA.gov is the U.S. government's official web portal to all federal, state and local government web resources and services.